N700SB KLVK-KOVE

Flight info

Callsign N700SB
Flight time 0h 22m
Altitude 16000
Route LVK3 ALTAM V334 SAC
Aircraft C700/M-SBDGHM1RWXY/LB2

Departure

Time 2026-05-07 03:43
Airport Livermore Municipal Airport (KLVK)

Arrival

Time 2026-05-07 04:05
Airport Oroville Municipal Airport (KOVE)
Time Latitude Longitude Altitude Speed Heading
2026-05-07 03:26 37.69549 -121.82270 382 ft 0 kts 271°
2026-05-07 03:36 37.69549 -121.82279 382 ft 4 kts 268°
2026-05-07 03:36 37.69541 -121.82298 382 ft 0 kts 227°
2026-05-07 03:38 37.69539 -121.82300 382 ft 0 kts 219°
2026-05-07 03:38 37.69523 -121.82305 383 ft 4 kts 176°
2026-05-07 03:38 37.69494 -121.82279 384 ft 7 kts 133°
2026-05-07 03:39 37.69461 -121.82251 385 ft 4 kts 122°
2026-05-07 03:39 37.69457 -121.82198 386 ft 11 kts 90°
2026-05-07 03:39 37.69456 -121.82082 386 ft 20 kts 91°
2026-05-07 03:39 37.69454 -121.81888 390 ft 22 kts 90°
2026-05-07 03:40 37.69453 -121.81693 393 ft 24 kts 90°
2026-05-07 03:40 37.69451 -121.81477 391 ft 20 kts 91°
2026-05-07 03:40 37.69450 -121.81321 394 ft 16 kts 90°
2026-05-07 03:40 37.69449 -121.81201 394 ft 9 kts 90°
2026-05-07 03:41 37.69439 -121.81142 390 ft 3 kts 137°
2026-05-07 03:41 37.69437 -121.81141 390 ft 0 kts 144°
2026-05-07 03:42 37.69403 -121.81136 393 ft 10 kts 186°
2026-05-07 03:42 37.69380 -121.81188 393 ft 6 kts 272°
2026-05-07 03:43 37.69384 -121.81570 392 ft 97 kts 270°
2026-05-07 03:43 37.69389 -121.82775 800 ft 162 kts 270°
2026-05-07 03:43 37.69445 -121.84313 1891 ft 188 kts 284°
2026-05-07 03:43 37.70224 -121.85633 3467 ft 199 kts 321°
2026-05-07 03:44 37.71633 -121.86113 4773 ft 228 kts
2026-05-07 03:44 37.73179 -121.85320 6124 ft 254 kts 29°
2026-05-07 03:44 37.74716 -121.84084 7700 ft 264 kts 32°
2026-05-07 03:44 37.76270 -121.82792 9446 ft 271 kts 33°
2026-05-07 03:45 37.77896 -121.81467 10906 ft 290 kts 33°
2026-05-07 03:45 37.79645 -121.79990 12070 ft 312 kts 40°
2026-05-07 03:45 37.80930 -121.77808 13673 ft 318 kts 58°
2026-05-07 03:45 37.82300 -121.75577 15187 ft 324 kts 47°
2026-05-07 03:46 37.84156 -121.73729 15966 ft 359 kts 31°
2026-05-07 03:46 37.86599 -121.72485 15987 ft 395 kts 15°
2026-05-07 03:46 37.89299 -121.71817 15990 ft 402 kts
2026-05-07 03:46 37.92080 -121.71311 15989 ft 402 kts
2026-05-07 03:47 37.94826 -121.70682 15984 ft 401 kts 13°
2026-05-07 03:47 37.97525 -121.69758 15978 ft 401 kts 17°
2026-05-07 03:47 38.00218 -121.68794 15983 ft 401 kts 15°
2026-05-07 03:47 38.02938 -121.67982 15985 ft 402 kts 13°
2026-05-07 03:48 38.05631 -121.67222 15992 ft 401 kts 13°
2026-05-07 03:48 38.08339 -121.66383 15985 ft 400 kts 14°
2026-05-07 03:48 38.11040 -121.65512 15984 ft 400 kts 14°
2026-05-07 03:48 38.13755 -121.64669 15984 ft 399 kts 14°
2026-05-07 03:49 38.16462 -121.63849 15987 ft 400 kts 14°
2026-05-07 03:49 38.19137 -121.63024 15985 ft 400 kts 14°
2026-05-07 03:49 38.21844 -121.62177 15989 ft 401 kts 14°
2026-05-07 03:49 38.24560 -121.61331 15986 ft 400 kts 14°
2026-05-07 03:50 38.27266 -121.60494 15984 ft 400 kts 14°
2026-05-07 03:50 38.29980 -121.59652 15985 ft 401 kts 14°
2026-05-07 03:50 38.32695 -121.58806 15986 ft 401 kts 14°
2026-05-07 03:50 38.35409 -121.57961 15991 ft 401 kts 14°
2026-05-07 03:51 38.38117 -121.57117 15987 ft 401 kts 14°
2026-05-07 03:51 38.40829 -121.56275 15992 ft 401 kts 14°
2026-05-07 03:51 38.43594 -121.55781 15990 ft 402 kts
2026-05-07 03:51 38.46353 -121.55922 15988 ft 403 kts 354°
2026-05-07 03:52 38.49110 -121.56658 15997 ft 404 kts 346°
2026-05-07 03:52 38.51841 -121.57539 15994 ft 404 kts 347°
2026-05-07 03:52 38.54574 -121.58405 15995 ft 405 kts 347°
2026-05-07 03:52 38.57310 -121.59270 15994 ft 404 kts 347°
2026-05-07 03:53 38.60045 -121.60142 15994 ft 404 kts 347°
2026-05-07 03:53 38.62739 -121.61003 15993 ft 404 kts 347°
2026-05-07 03:53 38.65469 -121.61873 15992 ft 404 kts 346°
2026-05-07 03:53 38.68209 -121.62746 15986 ft 404 kts 346°
2026-05-07 03:54 38.70937 -121.63616 15688 ft 398 kts 346°
2026-05-07 03:54 38.73546 -121.64451 15191 ft 384 kts 346°
2026-05-07 03:54 38.76100 -121.65269 14698 ft 373 kts 346°
2026-05-07 03:54 38.78594 -121.66066 14216 ft 367 kts 346°
2026-05-07 03:55 38.81087 -121.66864 13714 ft 368 kts 346°
2026-05-07 03:55 38.83579 -121.67664 13216 ft 365 kts 346°
2026-05-07 03:55 38.85998 -121.68439 12740 ft 349 kts 346°
2026-05-07 03:55 38.88264 -121.69166 12300 ft 331 kts 346°
2026-05-07 03:56 38.90450 -121.69869 11878 ft 316 kts 346°
2026-05-07 03:56 38.92548 -121.70543 11471 ft 305 kts 346°
2026-05-07 03:56 38.94574 -121.71195 11077 ft 297 kts 346°
2026-05-07 03:56 38.96571 -121.71837 10694 ft 296 kts 346°
2026-05-07 03:57 38.98575 -121.72482 10305 ft 298 kts 346°
2026-05-07 03:57 39.00593 -121.73132 9905 ft 299 kts 347°
2026-05-07 03:57 39.02613 -121.73783 9489 ft 298 kts 346°
2026-05-07 03:57 39.04615 -121.74428 9090 ft 294 kts 346°
2026-05-07 03:58 39.06578 -121.75061 8704 ft 288 kts 346°
2026-05-07 03:58 39.08502 -121.75682 8323 ft 282 kts 346°
2026-05-07 03:58 39.10375 -121.76287 7957 ft 278 kts 346°
2026-05-07 03:58 39.12250 -121.76854 7587 ft 275 kts 350°
2026-05-07 03:59 39.14163 -121.76953 7227 ft 274 kts 360°
2026-05-07 03:59 39.16069 -121.76955 6865 ft 273 kts 359°
2026-05-07 03:59 39.17973 -121.76981 6502 ft 273 kts 358°
2026-05-07 03:59 39.19840 -121.77000 6134 ft 270 kts 359°
2026-05-07 04:00 39.21704 -121.77012 5769 ft 265 kts 358°
2026-05-07 04:00 39.23541 -121.77025 5423 ft 262 kts 358°
2026-05-07 04:00 39.25332 -121.77039 5076 ft 250 kts 358°
2026-05-07 04:00 39.27017 -121.77051 4752 ft 234 kts 358°
2026-05-07 04:01 39.28595 -121.77064 4464 ft 216 kts 358°
2026-05-07 04:01 39.30064 -121.77070 4164 ft 210 kts 360°
2026-05-07 04:01 39.31483 -121.76708 3887 ft 208 kts 18°
2026-05-07 04:01 39.32762 -121.75818 3617 ft 211 kts 32°
2026-05-07 04:02 39.33997 -121.74770 3349 ft 213 kts 31°
2026-05-07 04:02 39.35254 -121.73731 3084 ft 216 kts 31°
2026-05-07 04:02 39.36523 -121.72678 2800 ft 216 kts 32°
2026-05-07 04:02 39.37774 -121.71634 2518 ft 213 kts 33°
2026-05-07 04:03 39.39009 -121.70603 2236 ft 210 kts 34°
2026-05-07 04:03 39.40217 -121.69595 1967 ft 208 kts 34°
2026-05-07 04:03 39.41436 -121.68575 1694 ft 208 kts 34°
2026-05-07 04:03 39.42649 -121.67562 1434 ft 201 kts 35°
2026-05-07 04:04 39.43741 -121.66654 1177 ft 170 kts 36°
2026-05-07 04:04 39.44634 -121.65910 959 ft 144 kts 36°
2026-05-07 04:04 39.45462 -121.65212 768 ft 145 kts 34°
2026-05-07 04:04 39.46314 -121.64497 580 ft 145 kts 35°
2026-05-07 04:05 39.47157 -121.63790 389 ft 144 kts 35°
2026-05-07 04:05 39.48000 -121.63082 210 ft 145 kts 35°
2026-05-07 04:05 39.48680 -121.62505 170 ft 62 kts 31°
2026-05-07 04:05 39.48786 -121.62422 171 ft 11 kts 31°
2026-05-07 04:06 39.48933 -121.62301 172 ft 29 kts 33°
2026-05-07 04:06 39.49104 -121.62156 173 ft 30 kts 33°
2026-05-07 04:06 39.49260 -121.62028 171 ft 15 kts 32°
2026-05-07 04:06 39.49358 -121.61944 170 ft 19 kts 34°
2026-05-07 04:07 39.49383 -121.61894 169 ft 3 kts 124°
2026-05-07 04:07 39.49360 -121.61866 169 ft 6 kts 143°
2026-05-07 04:07 39.49316 -121.61826 169 ft 11 kts 144°
2026-05-07 04:07 39.49237 -121.61751 169 ft 16 kts 143°
2026-05-07 04:08 39.49134 -121.61654 170 ft 20 kts 144°
2026-05-07 04:08 39.49076 -121.61599 170 ft 10 kts 143°
2026-05-07 04:08 39.49013 -121.61568 170 ft 9 kts 187°
2026-05-07 04:08 39.48987 -121.61565 170 ft 0 kts 167°